Regional Weather Roundup
Issued by NWS

Home | Current Version | Previous Version | Graphics & Text | Print | Product List | Glossary On
Versions: 1 2 3 4 5 6 7 8 9 10 11 12 13 14 15 16 17 18 19 20 21 22 23 24 25 26 27 28 29 30 31 32 33 34 35 36 37 38 39 40 41 42 43 44 45 46 47 48 49 50
000
ASUS45 KBOU 052110
RWRCO

WEATHER ROUNDUP FOR COLORADO
NATIONAL WEATHER SERVICE DENVER/BOULDER CO
300 PM MDT SUN JUL 05 2015

NOTE: "FAIR" INDICATES FEW OR NO CLOUDS BELOW 12000 FEET WITH NO
SIGNIFICANT WEATHER AND/OR OBSTRUCTIONS TO VISIBILITY.

COZ001>005-013-030-031-052200-
...NORTHWEST COLORADO...

CITY           SKY/WX    TMP DP  RH WIND       PRES   REMARKS
CRAIG          CLOUDY    70  56  61 CALM      30.16F
HAYDEN         CLOUDY    63  54  72 CALM      30.19F
MEEKER         LGT RAIN  64  59  83 SE6       30.18S
MOUNT WERNER   NOT AVBL
STEAMBOAT SPGS CLOUDY    63  59  87 SW5       30.20F
WALDEN         CLOUDY    63  50  63 NW15      30.23S
$$

COZ006>008-011-052200-
...WEST CENTRAL VALLEYS...

CITY           SKY/WX    TMP DP  RH WIND       PRES   REMARKS
GRAND JUNCTION CLOUDY    81  59  47 W10G17    30.06F
MONTROSE       CLOUDY    71  58  63 N6        30.16R
EAGLE          PTSUNNY   66  57  72 W5        30.18F
RIFLE          CLOUDY    74  58  57 VRB6      30.10F
DELTA          CLOUDY    77  58  52 S7        30.10F
NUCLA          DRIZZLE   63  59  88 CALM      30.22S
$$

COZ017>023-064>068-052200-
...SOUTHWEST COLORADO...

CITY           SKY/WX    TMP DP  RH WIND       PRES   REMARKS
DURANGO        MOSUNNY   79  54  41 SW12G21   30.17F
CORTEZ         MOSUNNY   83  52  34 W15G22    30.14F
PAGOSA SPRINGS PTSUNNY   75  47  36 W9        30.24F
TELLURIDE      CLOUDY    64  53  66 E8        30.37F
WOLF CREEK PAS NOT AVBL
$$

COZ009-010-012-014-032>034-037-058>063-052200-
...CENTRAL COLORADO...

CITY           SKY/WX    TMP DP  RH WIND       PRES   REMARKS
ASPEN          CLOUDY    69  52  54 CALM      30.23F
BUENA VISTA    CLOUDY    67  55  65 SE6       30.21S
COPPER MTN     CLOUDY    55  48  76 S12       30.54S
BERTHOUD PASS  TSTM      43  32  65 SE9       30.57S VSB 1/2
COTTONWOOD PAS NOT AVBL
GUNNISON       CLOUDY    70  48  46 W3        30.25F
KREMMLING      TSTM      59  54  82 CALM      30.22R
LEADVILLE      LGT RAIN  55  50  83 NW13      30.37F
MONARCH PASS   CLOUDY    50  45  81 SW18G25   30.64S
SALIDA         CLOUDY    75  48  39 S10       30.25R
SUNLIGHT       LGT RAIN  54  54 100 CALM      30.46F VSB 1/4
WILKERSON PASS CLOUDY    63  43  48 SW6       30.49S
$$

COZ069>075-052200-
...SAN LUIS VALLEY/SANGRE DE CRISTO MOUNTAINS...

CITY           SKY/WX    TMP DP  RH WIND       PRES   REMARKS
ALAMOSA        PTSUNNY   82  47  29 S12       30.17F
LA VETA PASS   CLOUDY    63  45  51 MISG      30.39F
SAGUACHE       CLOUDY    63  54  72 CALM      30.24F
$$

COZ035-036-038>040-052200-
...NORTHERN COLORADO FRONT RANGE...

CITY           SKY/WX    TMP DP  RH WIND       PRES   REMARKS
DENVER INTL AP CLOUDY    88  45  22 SE3       29.94F
DMNS CITY PARK   N/A     81  53  37 W16       29.94F
AURORA         PTSUNNY   88  55  31 W13       29.97F
FRONT RANGE AP PTSUNNY   88  54  31 SW7       29.96F
ERIE MUNI ARPT LGT RAIN  80  51  36 SW5       29.94S
BOULDER MUN AP LGT RAIN  82  50  32 SW5       29.96S
CENTENNIAL     CLOUDY    84  53  34 NW14      29.99F
BROOMFIELD     DRIZZLE   79  50  36 SW10      30.00S
FORT COLLINS   CLOUDY    90  52  27 E7        29.90S
LONGMONT       CLOUDY    86  49  27 SW15      29.95R
$$

COZ041-046-047-076>085-087-088-052200-
...PIKES PEAK/PALMER DIVIDE AND SOUTHERN FOOTHILLS...

CITY           SKY/WX    TMP DP  RH WIND       PRES   REMARKS
COLO. SPRINGS  PTSUNNY   86  48  26 VRB3      30.02F
A. F. ACADEMY  CLOUDY    83  50  31 N2        30.03F
ELLICOTT       PTSUNNY    1   1 100 SW6       30.00F WCI -10
FALCON         PTSUNNY   84  48  29 S3        30.09F
FORT CARSON    PTSUNNY   85  54  34 E2        29.99F
LIMON          PTSUNNY   85  50  29 S13G21    29.95F
MONUMENT HILL  CLOUDY    81  52  36 S3        30.10F
TRINIDAD       LGT RAIN  74  58  57 W18       30.02R
$$

COZ042>045-048>051-090-091-052200-
...NORTHEAST COLORADO...

CITY           SKY/WX    TMP DP  RH WIND       PRES   REMARKS
GREELEY ARPT   PTSUNNY   91  50  24 E8        29.90F
AKRON          PTSUNNY   91  51  25 VRB5      29.87F
BURLINGTON     MOSUNNY   96  47  18 S20G25    29.86F
WRAY           PTSUNNY  103  44  13 SW14G21   29.79F
STERLING       PTSUNNY   97  52  21 CALM        N/A
HOLYOKE        SUNNY     99  54  22 S7        29.81S
FORT MORGAN    PTSUNNY   96  45  17 CALM      29.88F
$$

COZ086-089-092>099-052200-
...SOUTHEAST COLORADO...

CITY           SKY/WX    TMP DP  RH WIND       PRES   REMARKS
PUEBLO         PTSUNNY   95  48  20 S7        29.88F
LA JUNTA       CLOUDY    96  51  21 SW6       29.85F
LAMAR          MOSUNNY   99  55  23 S16       29.79F
SPRINGFIELD      N/A     93  55  27 SW18G28   29.91F
$$


USA.gov is the U.S. government's official web portal to all federal, state and local government web resources and services.